CW5066 Weather Reports


time (UTC)temp
F
wind
direction
speed
knots
gust
knots
rain 1hr
in
rain 24hr
in
rain mn
in
humidity
%
barometer
mb
20260905112536 59 248 1.7 4.3 0.00 0.00 0.00 41 1028.7
20260905111536 59 248 0.9 3.5 0.00 0.00 0.00 42 1028.8
20260905110537 59 270 2.6 5.2 0.00 0.00 0.00 42 1029.2
20260905105517 59 270 1.7 4.3 0.00 0.00 0.00 42 1029.2
20260905104536 59 270 2.6 4.3 0.00 0.00 0.00 42 1029.1
20260905103516 59 270 2.6 4.3 0.00 0.00 0.00 42 1028.5
20260905102516 59 248 1.7 5.2 0.00 0.00 0.00 43 1028.5
20260905101516 59 248 1.7 3.5 0.00 0.00 0.00 44 1028.4
20260905100516 59 225 1.7 3.5 0.00 0.00 0.00 43 1029.0
20260905095516 59 270 2.6 4.3 0.00 0.00 0.00 44 1029.0
20260905094516 60 248 1.7 2.6 0.00 0.00 0.00 44 1029.0
20260905093516 60 248 0.9 3.5 0.00 0.00 0.00 44 1029.6
20260905092516 60 270 0.9 2.6 0.00 0.00 0.00 45 1029.6
20260905091516 60 0.0 1.7 0.00 0.00 0.00 46 1029.6
20260905090516 60 225 0.9 1.7 0.00 0.00 0.00 46 1029.7
20260905085516 59 135 0.9 1.7 0.00 0.00 0.00 47 1029.6
20260905084516 60 0.0 0.0 0.00 0.00 0.00 46 1029.4
20260905083516 59 203 0.9 2.6 0.00 0.00 0.00 47 1030.7
20260905082536 59 158 1.7 2.6 0.00 0.00 0.00 48 1030.6
20260905081516 59 158 1.7 3.5 0.00 0.00 0.00 48 1030.6
20260905080516 59 135 1.7 3.5 0.00 0.00 0.00 47 1030.0
20260905075536 60 180 3.5 6.1 0.00 0.00 0.00 46 1030.5
20260905074536 60 180 2.6 4.3 0.00 0.00 0.00 45 1030.5
20260905073516 60 180 1.7 2.6 0.00 0.00 0.00 45 1029.5
20260905072516 60 180 1.7 2.6 0.00 0.00 0.00 45 1029.4
20260905071516 60 0.0 1.7 0.00 0.00 0.00 45 1029.2
20260905070516 60 0.0 0.9 0.00 0.00 0.00 45 1029.2
20260905065515 60 0.0 1.7 0.00 0.00 0.00 45 1029.3
20260905064516 60 0.0 1.7 0.00 0.00 0.00 45 1029.4
20260905063516 60 0.0 0.9 0.00 0.00 0.00 45 1028.8
20260905062516 59 180 0.9 1.7 0.00 0.00 0.00 46 1028.2
20260905061515 59 180 0.9 1.7 0.00 0.00 0.00 46 1028.4
20260905060515 59 180 0.9 0.9 0.00 0.00 0.00 46 1027.7
20260905055536 59 0.0 1.7 0.00 0.00 0.00 46 1027.6
20260905054517 60 135 0.9 1.7 0.00 0.00 0.00 46 1027.7
20260905053517 60 0.0 1.7 0.00 0.00 0.00 45 1027.7
20260905052537 60 0 1.7 3.5 0.00 0.00 0.00 45 1027.6
20260905051516 60 0 3.5 6.1 0.00 0.00 0.00 45 1027.6
20260905050536 60 0 2.6 6.1 0.00 0.00 0.00 45 1026.9
20260905045516 60 0 3.5 7.0 0.00 0.00 0.00 45 1026.9
20260905044516 60 0 3.5 7.0 0.00 0.00 0.00 45 1027.0
20260905043516 60 0 2.6 7.0 0.00 0.00 0.00 46 1026.5
20260905042516 60 0 2.6 7.0 0.00 0.00 0.00 47 1026.5
20260905041516 60 23 2.6 5.2 0.00 0.00 0.00 47 1026.6
20260905040536 61 0 2.6 5.2 0.00 0.00 0.00 47 1026.7
20260905035556 61 0.0 1.7 0.00 0.00 0.00 45 1026.8
20260905034516 61 338 0.9 2.6 0.00 0.00 0.00 46 1027.0
20260905033516 62 23 1.7 3.5 0.00 0.00 0.00 45 1026.5
20260905032516 62 45 0.9 2.6 0.00 0.00 0.00 44 1026.5
20260905031516 62 23 0.9 4.3 0.00 0.00 0.00 44 1026.3
20260905030516 62 45 0.9 2.6 0.00 0.00 0.00 44 1025.6
20260905025536 62 45 1.7 6.1 0.00 0.00 0.00 44 1025.6
20260905024516 62 45 0.9 5.2 0.00 0.00 0.00 44 1025.6
20260905023516 62 45 0.9 2.6 0.00 0.00 0.00 44 1024.8
20260905022516 62 23 0.9 3.5 0.00 0.00 0.00 43 1024.7
20260905021516 62 23 0.9 2.6 0.00 0.00 0.00 43 1024.6
20260905020516 63 0.0 1.7 0.00 0.00 0.00 42 1024.7
20260905015516 64 45 0.9 2.6 0.00 0.00 0.00 41 1024.5
20260905014516 64 23 0.9 2.6 0.00 0.00 0.00 40 1025.0
20260905013515 65 0.0 1.7 0.00 0.00 0.00 39 1025.1
20260905012515 66 0.0 2.6 0.00 0.00 0.00 38 1025.1
20260905011515 67 0.0 1.7 0.00 0.00 0.00 36 1025.7
20260905010515 68 45 0.9 2.6 0.00 0.00 0.00 35 1026.2
20260905005516 69 23 0.9 3.5 0.00 0.00 0.00 32 1026.0
20260905004535 70 68 0.9 5.2 0.00 0.00 0.00 31 1026.0
20260905003515 70 23 0.9 1.7 0.00 0.00 0.00 30 1026.4
20260905002516 71 23 0.9 3.5 0.00 0.00 0.00 31 1026.5
20260905001515 71 68 0.9 2.6 0.00 0.00 0.00 30 1026.2
20260905000515 72 45 0.9 3.5 0.00 0.00 0.00 29 1026.2
20260904235515 72 68 0.9 3.5 0.00 0.00 0.00 29 1026.6
20260904234555 73 90 0.9 4.3 0.00 0.00 0.00 28 1026.5
20260904233515 74 23 0.9 3.5 0.00 0.00 0.00 28 1027.0
20260904232515 72 45 0.9 4.3 0.00 0.00 0.00 29 1026.4
20260904231515 72 23 0.9 4.3 0.00 0.00 0.00 29 1026.3
20260904230537 72 0.0 2.6 0.00 0.00 0.00 29 1026.2
20260904225537 73 0.0 2.6 0.00 0.00 0.00 28 1026.2
20260904224517 73 23 0.9 4.3 0.00 0.00 0.00 29 1026.3
20260904223517 73 90 1.7 4.3 0.00 0.00 0.00 28 1026.8
20260904222517 71 0.0 1.7 0.00 0.00 0.00 30 1026.5
20260904221517 71 45 0.9 3.5 0.00 0.00 0.00 30 1026.3
20260904220537 72 68 1.7 7.0 0.00 0.00 0.00 28 1026.2
20260904215517 72 68 0.9 2.6 0.00 0.00 0.00 29 1026.1
20260904214557 72 68 1.7 7.0 0.00 0.00 0.00 28 1026.1
20260904213517 73 68 0.9 4.3 0.00 0.00 0.00 28 1026.8
20260904212517 73 113 1.7 5.2 0.00 0.00 0.00 27 1026.8
20260904211517 74 45 0.9 2.6 0.00 0.00 0.00 26 1026.8
20260904210517 75 45 1.7 7.8 0.00 0.00 0.00 26 1026.7
20260904205517 76 90 1.7 6.1 0.00 0.00 0.00 25 1027.4
20260904204517 76 23 1.7 5.2 0.00 0.00 0.00 25 1027.5
20260904203517 75 23 1.7 6.1 0.00 0.00 0.00 25 1027.5
20260904202517 76 68 0.9 5.2 0.00 0.00 0.00 25 1027.6
20260904201517 78 0 0.9 3.5 0.00 0.00 0.00 24 1028.2
20260904200516 79 23 3.5 10.4 0.00 0.00 0.00 22 1029.4
20260904195517 79 45 0.9 5.2 0.00 0.00 0.00 23 1029.5
20260904194517 79 23 2.6 7.8 0.00 0.00 0.00 23 1029.6
20260904193516 78 90 4.3 13.9 0.00 0.00 0.00 24 1029.8
20260904192517 76 23 4.3 12.2 0.00 0.00 0.00 25 1029.0
20260904191516 74 45 1.7 4.3 0.00 0.00 0.00 26 1028.5
20260904190517 75 23 0.9 4.3 0.00 0.00 0.00 25 1028.5
20260904185516 74 315 2.6 7.8 0.00 0.00 0.00 28 1028.3
20260904184516 76 90 2.6 7.8 0.00 0.00 0.00 25 1029.0
20260904183536 75 68 2.6 7.0 0.00 0.00 0.00 26 1029.0
20260904182556 74 23 2.6 11.3 0.00 0.00 0.00 26 1028.6
20260904181516 73 338 4.3 8.7 0.00 0.00 0.00 26 1028.6
20260904180517 72 68 2.6 7.0 0.00 0.00 0.00 29 1028.5
20260904175516 70 23 4.3 8.7 0.00 0.00 0.00 31 1028.2
20260904174516 69 203 3.5 7.8 0.00 0.00 0.00 29 1027.2
20260904173516 69 180 1.7 7.8 0.00 0.00 0.00 31 1027.6
20260904172516 68 293 2.6 7.0 0.00 0.00 0.00 30 1026.8
20260904171516 67 225 2.6 7.0 0.00 0.00 0.00 30 1027.1
20260904170516 69 293 1.7 5.2 0.00 0.00 0.00 30 1027.6
20260904165516 68 0.0 1.7 0.00 0.00 0.00 32 1027.6
20260904164557 67 338 3.5 8.7 0.00 0.00 0.00 30 1026.8
20260904163516 66 293 2.6 7.0 0.00 0.00 0.00 30 1026.8
20260904162516 66 270 2.6 6.1 0.00 0.00 0.00 30 1026.7
20260904161516 66 270 2.6 7.0 0.00 0.00 0.00 30 1026.7
20260904160516 65 315 1.7 7.0 0.00 0.00 0.00 31 1026.6
20260904155516 65 293 0.9 2.6 0.00 0.00 0.00 33 1026.6
20260904154516 64 293 1.7 4.3 0.00 0.00 0.00 33 1026.1
20260904153636 64 248 1.7 5.2 0.00 0.00 0.00 35 1026.7
20260904152516 63 270 0.9 2.6 0.00 0.00 0.00 35 1026.1
20260904151516 63 0.0 1.7 0.00 0.00 0.00 36 1026.1
20260904150516 62 0.0 1.7 0.00 0.00 0.00 37 1025.6
20260904145516 60 0.0 2.6 0.00 0.00 0.00 38 1025.6
20260904144516 59 225 0.9 1.7 0.00 0.00 0.00 39 1024.9
20260904143516 59 225 0.9 2.6 0.00 0.00 0.00 39 1024.8
20260904142536 58 225 0.9 2.6 0.00 0.00 0.00 40 1024.9
20260904141556 57 203 0.9 1.7 0.00 0.00 0.00 40 1024.9
20260904140515 56 248 0.9 2.6 0.00 0.00 0.00 40 1025.4
20260904135536 56 270 1.7 3.5 0.00 0.00 0.00 40 1025.1
20260904134516 56 248 2.6 4.3 0.00 0.00 0.00 40 1024.9
20260904133515 56 248 2.6 7.0 0.00 0.00 0.00 40 1025.9
20260904132516 56 248 2.6 4.3 0.00 0.00 0.00 39 1025.1
20260904131536 55 248 2.6 4.3 0.00 0.00 0.00 39 1025.1
20260904130516 55 248 1.7 3.5 0.00 0.00 0.00 39 1026.1
20260904125516 56 248 1.7 3.5 0.00 0.00 0.00 38 1026.5
20260904124536 56 225 1.7 3.5 0.00 0.00 0.00 37 1026.3
20260904123515 56 203 2.6 4.3 0.00 0.00 0.00 37 1027.4
20260904122515 57 203 3.5 5.2 0.00 0.00 0.00 36 1027.9
20260904121515 57 180 3.5 7.0 0.00 0.00 0.00 37 1027.1
20260904120515 56 180 3.5 4.3 0.00 0.00 0.00 37 1027.2
20260904115515 56 158 1.7 2.6 0.00 0.00 0.00 37 1027.2
20260904114535 56 0.0 1.7 0.00 0.00 0.00 36 1027.2
20260904113515 56 0.0 1.7 0.00 0.00 0.00 36 1027.8